Time,TemperatureF,DewpointF,PressureIn,WindDirection,WindDirectionDegrees,WindSpeedMPH,WindSpeedGustMPH,Humidity,HourlyPrecipIn,Conditions,Clouds,dailyrainin,SoftwareType,DateUTC
2013-03-03 00:01:00,41.0,28.0,-100.00,South,170,2.0,5.0,59,-99.99,,,-99.99,,2013-03-03 08:01:00,
2013-03-03 01:01:00,43.0,25.0,-100.00,SSE,155,9.0,14.0,48,-99.99,,,-99.99,,2013-03-03 09:01:00,
2013-03-03 01:11:00,43.0,25.0,-100.00,SSE,155,9.0,14.0,48,-99.99,,,-99.99,,2013-03-03 09:11:00,
2013-03-03 02:01:00,42.0,19.0,-100.00,SE,135,12.0,17.0,39,-99.99,,,-99.99,,2013-03-03 10:01:00,
2013-03-03 03:01:00,39.0,20.0,-100.00,NNE,20,3.0,8.0,46,-99.99,,,-99.99,,2013-03-03 11:01:00,
2013-03-03 03:11:00,39.0,20.0,-100.00,NNE,20,3.0,8.0,46,-99.99,,,-99.99,,2013-03-03 11:11:00,
2013-03-03 04:01:00,37.0,20.0,-100.00,ESE,115,2.0,3.0,49,-99.99,,,-99.99,,2013-03-03 12:01:00,
2013-03-03 05:01:00,31.0,20.0,-100.00,SSW,195,1.0,1.0,63,-99.99,,,-99.99,,2013-03-03 13:01:00,
2013-03-03 05:10:00,33.0,21.0,-100.00,NE,40,5.0,7.0,60,-99.99,,,-99.99,,2013-03-03 13:10:00,
2013-03-03 05:11:00,31.0,20.0,-100.00,SSW,195,1.0,1.0,63,-99.99,,,-99.99,,2013-03-03 13:11:00,
2013-03-03 06:01:00,33.0,21.0,-100.00,NE,40,5.0,7.0,60,-99.99,,,-99.99,,2013-03-03 14:01:00,
2013-03-03 06:10:00,32.0,20.0,-100.00,ENE,75,1.0,3.0,60,-99.99,,,-99.99,,2013-03-03 14:10:00,
2013-03-03 07:01:00,32.0,20.0,-100.00,ENE,75,1.0,3.0,60,-99.99,,,-99.99,,2013-03-03 15:01:00,
2013-03-03 08:01:00,34.0,21.0,-100.00,SSE,160,1.0,2.0,58,-99.99,,,-99.99,,2013-03-03 16:01:00,
2013-03-03 08:10:00,37.0,23.0,-100.00,NNE,15,3.0,6.0,56,-99.99,,,-99.99,,2013-03-03 16:10:00,
2013-03-03 09:00:00,44.0,23.0,-100.00,ESE,105,9.0,13.0,43,-99.99,,,-99.99,,2013-03-03 17:00:00,
2013-03-03 09:01:00,37.0,23.0,-100.00,NNE,15,3.0,6.0,56,-99.99,,,-99.99,,2013-03-03 17:01:00,
2013-03-03 10:10:00,47.0,18.0,-100.00,SE,135,17.0,22.0,31,-99.99,,,-99.99,,2013-03-03 18:10:00,
2013-03-03 11:01:00,47.0,18.0,-100.00,SE,135,17.0,22.0,31,-99.99,,,-99.99,,2013-03-03 19:01:00,
2013-03-03 11:20:00,49.0,17.0,-100.00,SSE,160,14.0,18.0,27,-99.99,,,-99.99,,2013-03-03 19:20:00,
2013-03-03 12:01:00,49.0,17.0,-100.00,SSE,160,14.0,18.0,27,-99.99,,,-99.99,,2013-03-03 20:01:00,
2013-03-03 12:10:00,50.0,15.0,-100.00,ESE,110,13.0,18.0,24,-99.99,,,-99.99,,2013-03-03 20:10:00,
2013-03-03 12:11:00,49.0,17.0,-100.00,SSE,160,14.0,18.0,27,-99.99,,,-99.99,,2013-03-03 20:11:00,
2013-03-03 13:01:00,50.0,15.0,-100.00,ESE,110,13.0,18.0,24,-99.99,,,-99.99,,2013-03-03 21:01:00,
2013-03-03 14:01:00,51.0,16.0,-100.00,SE,125,18.0,25.0,24,-99.99,,,-99.99,,2013-03-03 22:01:00,
2013-03-03 14:10:00,51.0,17.0,-100.00,SE,145,16.0,27.0,25,-99.99,,,-99.99,,2013-03-03 22:10:00,
2013-03-03 14:11:00,51.0,16.0,-100.00,SE,125,18.0,25.0,24,-99.99,,,-99.99,,2013-03-03 22:11:00,
2013-03-03 15:01:00,51.0,17.0,-100.00,SE,145,16.0,27.0,25,-99.99,,,-99.99,,2013-03-03 23:01:00,
2013-03-03 16:01:00,51.0,17.0,-100.00,ESE,115,13.0,21.0,25,-99.99,,,-99.99,,2013-03-04 00:01:00,
2013-03-03 16:11:00,51.0,17.0,-100.00,ESE,115,13.0,21.0,25,-99.99,,,-99.99,,2013-03-04 00:11:00,
2013-03-03 17:01:00,50.0,17.0,-100.00,ESE,110,13.0,18.0,26,-99.99,,,-99.99,,2013-03-04 01:01:00,
2013-03-03 18:01:00,47.0,18.0,-100.00,ESE,120,12.0,18.0,31,-99.99,,,-99.99,,2013-03-04 02:01:00,
2013-03-03 18:11:00,47.0,18.0,-100.00,ESE,120,12.0,18.0,31,-99.99,,,-99.99,,2013-03-04 02:11:00,
2013-03-03 19:01:00,45.0,17.0,-100.00,ESE,120,16.0,21.0,32,-99.99,,,-99.99,,2013-03-04 03:01:00,
2013-03-03 20:01:00,42.0,19.0,-100.00,SSE,165,9.0,13.0,39,-99.99,,,-99.99,,2013-03-04 04:01:00,
2013-03-03 20:11:00,42.0,19.0,-100.00,SSE,165,9.0,13.0,39,-99.99,,,-99.99,,2013-03-04 04:11:00,
2013-03-03 21:01:00,41.0,19.0,-100.00,SSE,165,9.0,15.0,40,-99.99,,,-99.99,,2013-03-04 05:01:00,
2013-03-03 22:01:00,41.0,18.0,-100.00,SSE,160,9.0,15.0,39,-99.99,,,-99.99,,2013-03-04 06:01:00,
2013-03-03 22:11:00,41.0,18.0,-100.00,SSE,160,9.0,15.0,39,-99.99,,,-99.99,,2013-03-04 06:11:00,
2013-03-03 23:01:00,39.0,20.0,-100.00,SSE,150,9.0,15.0,46,-99.99,,,-99.99,,2013-03-04 07:01:00,
2013-03-03 23:10:00,38.0,20.0,-100.00,SE,140,7.0,10.0,47,-99.99,,,-99.99,,2013-03-04 07:10:00,